RYR8YU LFML-EBCI

Flight info

Callsign RYR8YU
Flight time N/A
Altitude 34000
Route ETREK DCT MADOT DCT MOPEM DCT CACHI DCT AVLON DCT OKRIX DCT BRY DCT CLM DCT KOPOR DCT SOMIL DCT BELDI DCT VEKIN Z173 ARVOL
Aircraft B738/M-SDE2E3FGHIRWXY/LB1

Departure

Time N/A
Airport Marseille Provence Airport (LFML)

Arrival

Time 2026-05-05 15:17
Airport Brussels South Charleroi Airport (EBCI)
Time Latitude Longitude Altitude Speed Heading
2026-05-05 15:16 50.47930 4.52049 1346 ft 170 kts 251°
2026-05-05 15:16 50.47463 4.50373 1082 ft 163 kts 252°
2026-05-05 15:17 50.47002 4.48791 890 ft 157 kts 252°
2026-05-05 15:17 50.46545 4.47217 660 ft 160 kts 250°
2026-05-05 15:17 50.46091 4.45648 593 ft 141 kts 245°
2026-05-05 15:17 50.45883 4.44926 593 ft 32 kts 252°
2026-05-05 15:18 50.45953 4.44777 595 ft 12 kts 343°
2026-05-05 15:18 50.46022 4.44815 596 ft 10 kts 51°
2026-05-05 15:18 50.46053 4.44902 596 ft 9 kts 64°
2026-05-05 15:18 50.46083 4.45001 595 ft 11 kts 65°
2026-05-05 15:19 50.46124 4.45143 597 ft 18 kts 65°
2026-05-05 15:19 50.46186 4.45353 598 ft 25 kts 65°
2026-05-05 15:19 50.46255 4.45595 598 ft 23 kts 65°
2026-05-05 15:19 50.46321 4.45822 596 ft 23 kts 65°
2026-05-05 15:20 50.46388 4.46046 592 ft 24 kts 67°
2026-05-05 15:20 50.46455 4.46280 590 ft 23 kts 65°
2026-05-05 15:20 50.46520 4.46505 588 ft 22 kts 66°
2026-05-05 15:20 50.46582 4.46716 590 ft 15 kts 65°
2026-05-05 15:21 50.46633 4.46798 590 ft 11 kts
2026-05-05 15:21 50.46694 4.46853 589 ft 11 kts 61°
2026-05-05 15:21 50.46727 4.46962 588 ft 11 kts 65°
2026-05-05 15:21 50.46760 4.47076 587 ft 11 kts 65°
2026-05-05 15:22 50.46791 4.47182 588 ft 6 kts 65°
2026-05-05 15:22 50.46815 4.47215 587 ft 7 kts
2026-05-05 15:22 50.46867 4.47184 584 ft 7 kts 335°
2026-05-05 15:22 50.46888 4.47169 584 ft 1 kts 335°
2026-05-05 15:23 50.46891 4.47167 584 ft 0 kts 336°